Location: ????????
(55.7667°N, 37.4833°E)
Time: 02:36:50
(UTC+00:00)

Cosmos 158 Rocket - Pass Details

Date: 19 May 2025
Orbit: 694 x 787 km, 74.0° (Epoch: 12 June)

Event Time Altitude Azimuth Distance (km) Brightness Sun altitude
Rises 18:53:22 0° 204° (SSW) 3,242 6.9 -7.6°
Reaches altitude 10° 18:55:43 10° 204° (SSW) 2,328 6.2 -7.8°
Maximum altitude 19:01:02 85° 117° (ESE) 797 4.1 -8.3°
Drops below altitude 10° 19:06:26 10° 29° (NNE) 2,362 6.9 -8.7°
Sets 19:08:51 0° 29° (NNE) 3,293 7.7 -8.9°
